Home   Weather   Wildwood   Past weeks
Flag for USA

Past Weather in Wildwood, New Jersey, USA — Yesterday and Last 2 Weeks

Now
59 °F

Clear.


Feels Like: 60 °F
Forecast: 64 / 54 °F
Wind: 3 mph from Northwest

Location: Cape May County Airport

Current Time: Oct 15, 2019 at 2:42:04 am

Latest Report: Oct 15, 2019 at 1:56 am


Visibility: 10 mi

Pressure: 30.10 "Hg

Humidity: 90%

Dew Point: 56 °F

Location of WildwoodLocation

Past Weather in Wildwood — Graph

°F

Wildwood Temperature Yesterday

Maximum temperature yesterday: 70 °F (at 3:56 pm)
Minimum temperature yesterday: 54 °F (at 11:56 pm)
Average temperature yesterday: 63 °F

High & Low Weather Summary for the Past Weeks

 TemperatureHumidityPressure
High93 °F (Oct 2, 2:56 pm)100% (Oct 9, 6:39 pm)30.43 "Hg (Oct 9, 6:39 pm)
Low45 °F (Oct 5, 6:56 am)39% (Oct 11, 12:56 am)29.81 "Hg (Oct 2, 4:56 pm)
Average65 °F75%30.12 "Hg
* Reported Sep 30 12:56 am — Oct 15 12:56 am, Wildwood. Weather by CustomWeather, © 2019

Note: Actual official high and low records may vary slightly from our data, if they occured in-between our weather recording intervals... More about our weather records

Advertising

Wildwood Weather History for the Previous 24 Hours

Scroll right to see more
 ConditionsComfort  
Time TempWeatherWind HumidityBarometerVisibility
12:56 am
Tue, Oct 15
55 °FClear.5 mph96%30.08 "Hg10 mi
11:56 pm
Mon, Oct 14
54 °FClear.No wind97%30.06 "Hg10 mi
10:56 pm55 °FFog.No wind96%30.06 "Hg6 mi
10:22 pm55 °FPassing clouds.No wind94%30.04 "Hg10 mi
9:56 pm57 °FClear.No wind96%30.05 "Hg10 mi
8:56 pm59 °FClear.3 mph93%30.04 "Hg10 mi
7:56 pm60 °FClear.5 mph93%30.03 "Hg10 mi
6:56 pm61 °FClear.6 mph83%30.01 "Hg10 mi
5:56 pm68 °FSunny.5 mph51%29.98 "Hg10 mi
4:56 pm70 °FSunny.3 mph49%29.96 "Hg10 mi
3:56 pm70 °FSunny.6 mph49%29.97 "Hg10 mi
2:56 pm69 °FSunny.9 mph55%29.98 "Hg10 mi
1:56 pm69 °FSunny.8 mph61%29.99 "Hg10 mi
12:56 pm66 °FSunny.8 mph75%30.01 "Hg10 mi
11:56 am67 °FScattered clouds.10 mph73%30.03 "Hg10 mi
10:56 am65 °FPassing clouds.7 mph78%30.03 "Hg10 mi
9:56 am62 °FMore clouds than sun.3 mph90%30.05 "Hg10 mi
8:56 am62 °FLow clouds.N/A93%30.04 "Hg10 mi
7:56 am61 °FOvercast.No wind97%30.01 "Hg10 mi
6:56 am61 °FLow clouds.No wind97%29.99 "Hg10 mi
6:35 am63 °FMostly cloudy.3 mph94%29.98 "Hg10 mi
5:56 am62 °FMostly cloudy.No wind96%29.98 "Hg10 mi
5:07 am63 °FMostly cloudy.No wind100%29.97 "Hg10 mi
4:56 am63 °FOvercast.3 mph97%29.98 "Hg10 mi
3:56 am63 °FMostly cloudy.No wind97%29.96 "Hg8 mi
3:44 am64 °FLow clouds.No wind94%29.95 "Hg9 mi
2:56 am64 °FLow clouds.5 mph97%29.97 "Hg10 mi
2:21 am64 °FLow clouds.5 mph94%29.97 "Hg10 mi
Weather by CustomWeather, © 2019

See weather overview